FW6937 Weather Reports


time (UTC)temp
C
wind
direction
speed
KPH
gust
KPH
rain 1hr
cm
rain 24hr
cm
rain mn
cm
humidity
%
barometer
mb
20260504190108 23 229 4.8 9.7 0.00 0.00 0.00 47 1015.5
20260504185845 23 251 4.8 9.7 0.00 0.00 0.00 49 1015.6
20260504185204 23 251 6.4 11.3 0.00 0.00 0.00 47 1015.7
20260504184558 23 268 6.4 11.3 0.00 0.00 0.00 49 1015.7
20260504184101 23 264 4.8 8.0 0.00 0.00 0.00 47 1015.7
20260504183558 23 253 4.8 8.0 0.00 0.00 0.00 48 1015.8
20260504183211 23 235 4.8 8.0 0.00 0.00 0.00 49 1015.9
20260504182058 22 226 4.8 9.7 0.00 0.00 0.00 49 1016.0
20260504181558 22 240 4.8 9.7 0.00 0.00 0.00 47 1016.0
20260504181058 22 262 3.2 8.0 0.00 0.00 0.00 46 1016.1
20260504180602 22 233 4.8 8.0 0.00 0.00 0.00 47 1016.2
20260504180138 22 235 4.8 8.0 0.00 0.00 0.00 47 1016.3
20260504175559 22 254 4.8 9.7 0.00 0.00 0.00 47 1016.4
20260504175058 22 275 4.8 9.7 0.00 0.00 0.00 50 1016.3
20260504174558 22 271 4.8 9.7 0.00 0.00 0.00 48 1016.4
20260504174059 22 245 3.2 8.0 0.00 0.00 0.00 49 1016.5
20260504173555 21 255 6.4 9.7 0.00 0.00 0.00 48 1016.5
20260504173058 22 240 6.4 9.7 0.00 0.00 0.00 50 1016.6
20260504172558 21 248 6.4 9.7 0.00 0.00 0.00 48 1016.7
20260504172057 21 214 4.8 11.3 0.00 0.00 0.00 49 1016.7
20260504171559 21 266 6.4 11.3 0.00 0.00 0.00 49 1016.7
20260504171058 21 244 6.4 8.0 0.00 0.00 0.00 48 1016.7
20260504170555 21 251 6.4 9.7 0.00 0.00 0.00 50 1016.8
20260504160104 20 283 4.8 9.7 0.00 0.00 0.00 50 1017.7
20260504151055 18 248 6.4 12.9 0.00 0.00 0.00 53 1018.0
20260504150555 18 255 6.4 11.3 0.00 0.00 0.00 52 1018.0
20260504141057 15 259 3.2 4.8 0.00 0.00 0.00 64 1018.1
20260504140557 15 242 1.6 4.8 0.00 0.00 0.00 66 1018.0
20260504130559 12 55 0.0 1.6 0.00 0.00 0.00 79 1018.2
20260504130436 11 0 0.0 1.6 0.00 0.00 0.00 79 1018.2
20260504120110 8 0 0.0 1.6 0.00 0.00 0.00 89 1018.2
20260504110557 7 12 0.0 1.6 0.00 0.00 0.00 89 1017.9
20260504100557 8 42 1.6 3.2 0.00 0.00 0.00 88 1017.6
20260504100115 8 41 1.6 3.2 0.00 0.00 0.00 87 1017.6
20260504081556 8 21 1.6 3.2 0.00 0.00 0.00 82 1017.4
20260504081057 8 20 1.6 3.2 0.00 0.00 0.00 82 1017.4
20260504080557 8 30 1.6 3.2 0.00 0.00 0.00 81 1017.4
20260504060104 11 0 0.0 1.6 0.00 0.00 0.00 76 1018.0
20260504050556 12 0 0.0 1.6 0.00 0.00 0.00 68 1018.0
20260504050113 12 0 0.0 1.6 0.00 0.00 0.00 68 1017.9
20260504045557 12 0 0.0 1.6 0.00 0.00 0.00 68 1017.8
20260504045057 12 263 0.0 1.6 0.00 0.00 0.00 68 1017.9
20260504044557 12 0 0.0 1.6 0.00 0.00 0.00 67 1017.9
20260504044055 12 266 0.0 1.6 0.00 0.00 0.00 66 1017.9
20260504043600 12 266 1.6 1.6 0.00 0.00 0.00 67 1018.0
20260504043104 12 262 0.0 1.6 0.00 0.00 0.00 67 1018.0
20260504042557 12 259 0.0 1.6 0.00 0.00 0.00 69 1017.9
20260504042102 12 259 1.6 1.6 0.00 0.00 0.00 69 1017.9
20260504041558 12 259 0.0 1.6 0.00 0.00 0.00 69 1017.9
20260504041054 12 258 1.6 3.2 0.00 0.00 0.00 71 1018.0
20260504040600 12 257 1.6 3.2 0.00 0.00 0.00 71 1018.0
20260504040104 12 255 1.6 1.6 0.00 0.00 0.00 72 1018.0
20260504035558 12 269 1.6 3.2 0.00 0.00 0.00 71 1018.0
20260504035058 12 269 0.0 3.2 0.00 0.00 0.00 72 1018.0
20260504034616 12 268 1.6 3.2 0.00 0.00 0.00 71 1018.1
20260504034058 12 19 0.0 1.6 0.00 0.00 0.00 70 1018.0
20260504033557 12 19 0.0 1.6 0.00 0.00 0.00 70 1018.0
20260504033103 12 0 0.0 3.2 0.00 0.00 0.00 67 1018.1
20260504032557 12 0 0.0 3.2 0.00 0.00 0.00 66 1018.2
20260504032055 12 19 1.6 3.2 0.00 0.00 0.00 68 1018.1
20260504031602 12 0 0.0 1.6 0.00 0.00 0.00 67 1018.1
20260504031059 12 7 0.0 3.2 0.00 0.00 0.00 65 1018.1
20260504030555 12 7 1.6 3.2 0.00 0.00 0.00 66 1018.1
20260504030054 12 7 1.6 3.2 0.00 0.00 0.00 66 1018.2
20260504025555 12 8 1.6 1.6 0.00 0.00 0.00 65 1018.2
20260504025055 12 8 0.0 1.6 0.00 0.00 0.00 64 1018.1
20260504024559 12 9 1.6 1.6 0.00 0.00 0.00 63 1018.1
20260504024055 13 6 0.0 1.6 0.00 0.00 0.00 62 1018.0
20260504023555 13 0 0.0 1.6 0.00 0.00 0.00 61 1018.0
20260504023057 13 0 0.0 1.6 0.00 0.00 0.00 61 1017.9
20260504022558 13 6 0.0 3.2 0.00 0.00 0.00 62 1017.9
20260504022055 13 5 1.6 3.2 0.00 0.00 0.00 61 1018.0
20260504021600 13 348 0.0 1.6 0.00 0.00 0.00 60 1017.9
20260504021055 13 0 0.0 1.6 0.00 0.00 0.00 58 1017.9
20260504020555 13 348 1.6 1.6 0.00 0.00 0.00 58 1017.8
20260504020112 14 264 0.0 1.6 0.00 0.00 0.00 57 1017.7
20260504015556 14 264 0.0 1.6 0.00 0.00 0.00 56 1017.7
20260504015055 15 0 0.0 1.6 0.00 0.00 0.00 54 1017.6
20260504014600 15 264 0.0 1.6 0.00 0.00 0.00 53 1017.4
20260504014054 15 264 0.0 1.6 0.00 0.00 0.00 52 1017.4
20260504013555 15 0 0.0 1.6 0.00 0.00 0.00 52 1017.4
20260504013105 15 264 0.0 1.6 0.00 0.00 0.00 52 1017.3
20260504012559 15 264 0.0 1.6 0.00 0.00 0.00 52 1017.1
20260504012055 15 264 0.0 3.2 0.00 0.00 0.00 51 1017.1
20260504011559 15 262 0.0 3.2 0.00 0.00 0.00 51 1017.0
20260504011057 15 255 0.0 3.2 0.00 0.00 0.00 50 1017.0
20260504010554 15 254 1.6 3.2 0.00 0.00 0.00 50 1017.1
20260504010059 15 264 1.6 3.2 0.00 0.00 0.00 50 1017.1
20260504005555 16 257 1.6 3.2 0.00 0.00 0.00 49 1017.1
20260504005057 16 293 0.0 3.2 0.00 0.00 0.00 49 1017.0
20260504004606 16 269 1.6 3.2 0.00 0.00 0.00 48 1017.0
20260504004055 16 277 1.6 4.8 0.00 0.00 0.00 48 1016.9
20260504003555 16 247 0.0 4.8 0.00 0.00 0.00 47 1016.8
20260504003057 16 261 1.6 3.2 0.00 0.00 0.00 47 1016.8
20260504002600 16 265 0.0 3.2 0.00 0.00 0.00 47 1016.7
20260504002055 16 257 1.6 3.2 0.00 0.00 0.00 46 1016.7
20260504001601 16 271 0.0 4.8 0.00 0.00 0.00 46 1016.6
20260504001055 17 262 1.6 4.8 0.00 0.00 0.00 45 1016.6
20260504000554 17 274 1.6 6.4 0.00 0.00 0.00 45 1016.6
20260504000058 17 274 1.6 6.4 0.00 0.00 0.00 45 1016.5
20260503235554 17 272 1.6 6.4 0.00 0.00 0.00 44 1016.4
20260503235055 17 271 3.2 8.0 0.00 0.00 0.00 43 1016.4
20260503234558 17 258 3.2 8.0 0.00 0.00 0.00 42 1016.4
20260503234055 17 252 3.2 8.0 0.00 0.00 0.00 40 1016.3
20260503233554 17 299 3.2 9.7 0.00 0.00 0.00 40 1016.4
20260503233056 17 265 4.8 9.7 0.00 0.00 0.00 40 1016.3
20260503232558 17 218 4.8 9.7 0.00 0.00 0.00 40 1016.4
20260503232055 18 271 4.8 11.3 0.00 0.00 0.00 38 1016.4
20260503231601 18 255 6.4 11.3 0.00 0.00 0.00 37 1016.5
20260503231055 18 248 4.8 11.3 0.00 0.00 0.00 38 1016.4
20260503230557 18 245 4.8 9.7 0.00 0.00 0.00 37 1016.5
20260503230106 18 238 4.8 9.7 0.00 0.00 0.00 36 1016.5
20260503225556 18 256 4.8 8.0 0.00 0.00 0.00 36 1016.5
20260503225056 18 269 3.2 8.0 0.00 0.00 0.00 35 1016.6
20260503224604 18 257 3.2 8.0 0.00 0.00 0.00 37 1016.6
20260503224055 18 257 3.2 9.7 0.00 0.00 0.00 37 1016.5
20260503223555 18 270 3.2 11.3 0.00 0.00 0.00 39 1016.5
20260503223059 18 238 4.8 11.3 0.00 0.00 0.00 39 1016.5
20260503222557 18 223 4.8 9.7 0.00 0.00 0.00 38 1016.6
20260503222054 18 250 3.2 8.0 0.00 0.00 0.00 37 1016.5
20260503221604 18 262 4.8 9.7 0.00 0.00 0.00 37 1016.5
20260503221056 18 285 4.8 12.9 0.00 0.00 0.00 40 1016.5
20260503220555 18 270 4.8 12.9 0.00 0.00 0.00 39 1016.5
20260503220101 18 250 6.4 12.9 0.00 0.00 0.00 39 1016.5
20260503215555 18 252 6.4 12.9 0.00 0.00 0.00 41 1016.6
20260503215055 18 255 6.4 14.5 0.00 0.00 0.00 38 1016.6
20260503214557 18 333 8.0 14.5 0.00 0.00 0.00 36 1016.6
20260503214055 19 242 4.8 14.5 0.00 0.00 0.00 39 1016.7
20260503213558 19 266 6.4 12.9 0.00 0.00 0.00 39 1016.7
20260503213103 19 216 6.4 12.9 0.00 0.00 0.00 38 1016.7
20260503212555 19 259 6.4 16.1 0.00 0.00 0.00 40 1016.7
20260503212054 19 254 9.7 16.1 0.00 0.00 0.00 39 1016.8
20260503211612 19 237 6.4 9.7 0.00 0.00 0.00 39 1016.9
20260503211055 20 269 4.8 9.7 0.00 0.00 0.00 39 1016.7
20260503210556 20 252 3.2 12.9 0.00 0.00 0.00 37 1016.8
20260503210057 20 281 4.8 12.9 0.00 0.00 0.00 40 1016.9
20260503205556 20 247 4.8 11.3 0.00 0.00 0.00 37 1016.9
20260503205056 20 259 6.4 11.3 0.00 0.00 0.00 37 1017.0
20260503204557 20 257 6.4 12.9 0.00 0.00 0.00 37 1017.0
20260503204054 20 263 8.0 12.9 0.00 0.00 0.00 39 1017.1
20260503203555 20 250 6.4 11.3 0.00 0.00 0.00 38 1017.2
20260503203057 20 255 3.2 9.7 0.00 0.00 0.00 41 1017.3
20260503202556 20 252 4.8 9.7 0.00 0.00 0.00 39 1017.3
20260503202059 20 243 6.4 9.7 0.00 0.00 0.00 39 1017.4
20260503201557 20 261 6.4 11.3 0.00 0.00 0.00 36 1017.4
20260503201056 20 271 6.4 12.9 0.00 0.00 0.00 38 1017.6
20260503200555 20 250 6.4 12.9 0.00 0.00 0.00 38 1017.7
20260503200113 20 249 3.2 9.7 0.00 0.00 0.00 38 1017.7
20260503195555 20 231 3.2 9.7 0.00 0.00 0.00 38 1017.9
20260503195055 20 236 4.8 12.9 0.00 0.00 0.00 37 1017.9
20260503194604 20 264 6.4 12.9 0.00 0.00 0.00 38 1018.0
20260503194055 20 265 3.2 8.0 0.00 0.00 0.00 39 1018.0
20260503193555 20 244 3.2 8.0 0.00 0.00 0.00 39 1018.2
20260503193102 20 232 4.8 9.7 0.00 0.00 0.00 37 1018.2
20260503192554 20 252 3.2 9.7 0.00 0.00 0.00 37 1018.5
20260503192054 20 254 6.4 9.7 0.00 0.00 0.00 36 1018.5
20260503191605 20 249 6.4 11.3 0.00 0.00 0.00 37 1018.6
20260503191056 19 263 4.8 11.3 0.00 0.00 0.00 35 1018.7
20260503190556 19 313 6.4 9.7 0.00 0.00 0.00 38 1018.8